User: anonymous   Login
Location: McDonald Observatory
(30.6717°N, 104.0221°W)
Time: 23:40:56
(UTC-06:00)
Language:

Cosmos 1484 Rocket - Orbit

View from above orbital plane
View from above orbital plane
View from above satellite
View from above satellite

Ground track
Ground track

The orbit data is extracted from the following two-line orbital elements,

1 14208U 83075B   14331.83230670  .00003678  00000-0  23960-3 0  1831
2 14208 097.4084 002.8135 0043701 101.6662 258.9475 15.07733880706853
Epoch (UTC): 27 November 2014 19:58:31
Eccentricity: 0.0043701
inclination: 97.4084°
perigee height: 513 km
apogee height: 573 km
right ascension of ascending node: 2.8135°
argument of perigee: 101.6662°
revolutions per day: 15.07733880
mean anomaly at epoch: 258.9475°
orbit number at epoch: 70685

The dashed part of the orbit path shows where the satellite is in the earth's shadow,  

DLR